Flag for U.S.A. Weather past 2 weeks in McAllen, Texas, U.S.A.

Now
71 °F

Mostly cloudy.


Feels Like: 76 °F
Forecast: 69 / 81 °F
Wind: 6 mph from Northeast

Location: Miller International Airport

Current Time: Apr 21, 2015 at 2:31:06 AM

Latest Report: Apr 21, 2015 at 1:53 AM


Visibility: 10 mi

Pressure: 29.97 "Hg

Humidity: 61%

Dew point: 57 °F

Location of McAllenLocation

Historic Weather in McAllen — Graph

°F

McAllen temperature yesterday

Maximum temperature yesterday: 79 °F (at 12:53 AM)
Minimum temperature yesterday: 71 °F (at 10:53 PM)
Average temperature yesterday: 77 °F

Past Weeks' High & Low Weather Summary

 TemperatureHumidityPressure
High92 °F (Apr 9, 2:53 PM)91% (Apr 6, 1:53 AM)30.07 "Hg (Apr 6, 1:53 AM)
Low69 °F (Apr 12, 11:53 PM)39% (Apr 7, 4:53 PM)29.72 "Hg (Apr 19, 4:53 PM)
Average79 °F76%29.89 "Hg
* Reported Apr 6 12:53 AM — Apr 21 12:53 AM, McAllen, Weather by CustomWeather, © 2015

Note: Actual official high and low records may vary slightly from our data, if they occured in-between our weather recording intervals... More about our weather records

Advertising

McAllen weather history for previous 24 hours

 ConditionsComfort  
Time TempWeatherWind HumidityBarometerVisibility
12:53 AM
Tue, Apr 21
70 °FOvercast.3 mph61%29.99 "Hg10 mi
11:53 PM
Mon, Apr 20
71 °FOvercast.7 mph57%29.98 "Hg10 mi
10:53 PM71 °FOvercast.8 mph59%29.99 "Hg10 mi
9:53 PM72 °FPassing clouds.7 mph57%29.99 "Hg10 mi
8:53 PM73 °FMostly cloudy.9 mph57%29.96 "Hg10 mi
7:53 PM74 °FMore clouds than sun.9 mph56%29.93 "Hg10 mi
6:53 PM76 °FOvercast.12 mph54%29.92 "Hg10 mi
5:53 PM77 °FPassing clouds.13 mph52%29.89 "Hg10 mi
4:53 PM78 °FPartly sunny.14 mph48%29.89 "Hg10 mi
3:53 PM77 °FPartly sunny.10 mph52%29.90 "Hg10 mi
2:53 PM77 °FPartly sunny.12 mph54%29.92 "Hg10 mi
1:53 PM77 °FOvercast.12 mph54%29.93 "Hg10 mi
12:53 PM76 °FPartly sunny.14 mph56%29.93 "Hg10 mi
11:53 AM77 °FPassing clouds.16 mph54%29.92 "Hg10 mi
10:53 AM77 °FSunny.20 mph54%29.92 "Hg10 mi
9:53 AM74 °FPassing clouds.21 mph64%29.90 "Hg10 mi
8:53 AM79 °FMostly cloudy.14 mph79%29.88 "Hg7 mi
7:53 AM79 °FLow clouds.13 mph84%29.86 "Hg4 mi
6:53 AM79 °FMostly cloudy.5 mph84%29.83 "Hg5 mi
6:02 AM79 °FOvercast.7 mph84%29.83 "Hg5 mi
5:53 AM79 °FMostly cloudy.6 mph84%29.82 "Hg5 mi
4:53 AM79 °FLow clouds.No wind84%29.80 "Hg4 mi
3:53 AM78 °FFog.5 mph90%29.80 "Hg3 mi
2:53 AM79 °FFog.6 mph88%29.80 "Hg4 mi
Weather by CustomWeather, © 2015

See weather overviewHow to use our weather pages